Theta_e
313 315 319 322 315 312 315 318 315 316 317 317 318 317 317 317 316 315 320 319 321 322 328 330 332 333 333 333 332 330 329 331 332 331 330 330 328 325 324 331 333 334 330 323 322 321 320 322 321
314 317 321 320 312 313 314 313 317 316 317 318 318 318 317 317 319 320 320 319 319 322 326 329 331 332 333 333 334 332 330 332 331 330 330 329 328 325 324 327 330 330 329 324 320 320 319 319 319
317 319 319 309 309 313 314 314 315 317 317 317 317 318 317 317 319 317 317 317 318 320 322 327 329 331 331 330 331 331 332 330 329 329 328 327 326 324 323 323 328 329 326 324 320 320 318 319 320
319 320 316 310 315 313 314 314 314 317 317 317 317 316 317 318 318 316 315 315 316 318 322 323 329 330 330 330 330 331 331 328 328 327 326 325 325 323 321 321 330 330 317 318 318 317 317 316 316
318 317 311 313 315 314 312 315 316 315 316 316 317 316 316 317 318 316 315 316 316 316 319 322 324 329 330 330 331 331 331 329 328 328 326 330 326 323 321 320 323 315 314 313 313 315 314 314 313
318 314 311 313 314 313 314 315 315 313 314 316 316 315 316 317 317 316 316 316 316 316 316 317 320 322 327 329 330 331 331 330 329 329 328 331 329 325 325 323 321 315 311 311 311 311 312 312 311
314 308 311 313 313 314 314 315 314 314 314 315 316 313 316 316 315 316 317 317 317 316 316 317 318 320 322 326 328 329 329 330 330 329 329 331 331 330 328 327 325 322 315 311 310 310 309 309 306
317 309 313 312 312 315 314 314 315 315 314 316 316 312 313 315 315 316 316 317 316 316 317 317 319 320 322 324 326 328 328 329 330 330 329 330 331 330 328 328 327 327 321 318 310 308 307 306 304
315 307 309 314 311 314 315 314 315 315 314 315 314 314 313 314 314 315 316 316 316 316 317 318 318 320 321 322 325 326 328 330 332 332 331 331 330 329 329 329 329 328 328 324 319 309 306 305 303
311 305 309 311 313 314 315 314 315 315 314 313 315 314 314 314 315 315 315 314 314 314 315 316 317 319 320 322 324 325 327 332 335 333 332 331 330 330 330 331 330 329 329 328 325 320 309 304 303
313 309 311 315 315 315 315 314 315 314 312 312 313 312 313 313 313 313 313 313 314 313 313 314 316 317 318 319 320 322 324 328 330 334 333 331 331 329 330 329 329 328 329 327 326 325 317 306 303
315 315 314 316 316 315 314 315 314 314 313 313 313 313 313 314 313 313 313 312 312 313 313 314 315 315 316 317 318 319 322 324 332 331 328 331 330 330 329 328 328 328 326 328 327 324 323 313 305
315 314 314 315 315 314 314 313 313 313 312 312 312 312 312 312 311 311 311 311 312 313 313 313 314 314 315 316 318 321 323 323 325 327 330 327 329 328 328 326 325 326 326 324 325 325 322 318 310
312 313 313 314 314 312 312 311 312 311 312 313 312 313 311 310 311 310 310 311 311 312 312 313 313 314 315 315 318 323 325 326 326 327 328 332 331 329 327 327 326 324 324 325 323 323 321 322 319
313 312 309 310 311 311 311 313 311 311 311 312 311 310 309 309 308 309 309 309 309 310 311 311 312 313 314 315 317 323 326 327 328 329 329 329 329 327 326 327 326 325 325 324 323 322 322 322 321
311 308 310 310 311 311 311 313 312 311 311 309 309 308 307 307 306 306 306 307 308 308 309 310 311 313 315 316 318 322 325 327 328 326 326 325 326 327 327 326 325 324 323 324 324 323 321 321 321
306 311 309 309 311 311 311 312 311 310 310 306 305 305 305 305 305 305 305 306 307 308 308 310 313 315 317 318 320 323 325 326 325 325 323 324 324 323 324 325 324 325 325 325 326 324 321 322 319
310 309 308 310 311 311 311 310 309 309 309 305 303 303 303 303 303 304 305 306 306 307 308 309 311 315 317 320 322 323 324 325 323 322 320 320 321 321 321 322 323 323 324 324 323 323 323 322 320
308 308 310 309 310 311 310 309 309 306 304 302 302 301 301 302 302 302 303 304 305 306 306 307 309 310 311 313 314 316 317 319 320 317 316 317 317 317 317 318 319 320 320 319 319 318 318 316 316
309 309 308 308 308 309 309 309 309 304 303 303 301 300 300 301 302 303 304 305 305 305 305 306 306 306 306 307 307 308 311 312 314 315 314 313 313 312 313 314 314 315 315 316 316 316 315 314 313
307 308 309 310 310 309 309 309 306 303 302 301 301 300 299 300 301 301 301 301 302 302 303 303 303 303 303 303 304 304 305 307 306 306 307 304 304 304 305 307 309 310 311 311 311 311 311 311 311
309 307 309 310 311 313 308 311 308 304 302 300 299 299 299 299 300 300 300 301 302 302 302 302 302 302 301 302 302 302 302 302 302 302 302 302 302 302 302 302 302 303 304 305 306 307 307 306 307
311 308 309 309 309 308 309 309 307 304 304 301 299 299 298 299 299 299 300 301 301 300 300 300 301 300 300 300 300 300 300 299 298 297 298 298 297 297 297 297 298 298 298 299 299 299 300 301 302
306 308 307 306 307 310 309 310 309 306 306 302 299 299 299 299 298 298 300 300 299 299 298 298 299 300 299 299 299 299 298 297 296 295 295 293 292 292 292 291 291 290 290 290 290 291 294 296 296
307 309 313 312 311 314 308 308 309 306 303 302 300 299 298 299 299 298 299 299 298 298 297 298 298 298 297 297 296 296 296 295 294 293 292 291 290 290 290 289 289 289 288 288 288 288 288 288 288
307 310 313 315 312 311 308 311 311 301 300 301 302 301 299 299 298 298 298 299 299 297 297 297 296 296 295 294 294 293 292 292 292 291 290 290 289 288 288 287 287 287 287 287 287 287 287 287 287
308 309 309 309 295 307 310 309 303 300 299 298 299 300 300 299 299 299 299 299 299 299 296 295 294 294 293 292 291 291 290 290 290 289 289 289 289 289 288 288 287 287 287 286 286 286 286 286 286
309 308 312 308 309 310 311 309 311 304 301 298 297 299 300 300 299 299 299 300 300 298 295 294 293 292 291 290 290 289 289 289 288 288 288 288 288 287 287 287 287 286 286 286 286 286 286 286 286
310 310 309 309 308 310 307 310 303 304 300 299 299 301 301 301 301 301 300 299 299 297 295 293 291 290 290 289 289 289 289 289 288 288 288 287 287 286 286 285 285 285 285 286 286 285 285 285 285
307 309 308 312 310 304 307 312 301 302 300 300 300 302 303 303 302 301 300 299 299 297 296 293 291 290 289 289 289 289 289 288 288 288 287 287 286 286 285 285 285 285 285 285 285 284 284 284 284
Wind_Speed
4 3 3 1 4 5 1 1 1 3 2 1 2 2 1 2 3 2 6 1 3 5 14 16 16 15 15 12 11 10 9 7 5 3 3 3 2 1 1 2 2 4 5 4 4 4 3 2 1
3 3 1 2 5 4 4 4 1 1 1 1 2 3 3 1 3 3 5 3 4 3 11 15 16 15 15 13 13 11 10 8 6 5 4 4 4 3 2 2 4 6 7 5 4 3 2 2 1
3 3 1 4 4 4 3 3 2 2 3 3 2 3 2 2 4 3 5 4 3 1 4 12 15 16 15 13 13 12 10 8 7 6 6 6 5 4 5 6 6 7 7 7 5 3 3 2 3
3 2 5 5 2 1 1 1 2 1 2 4 3 2 1 2 1 2 6 7 5 2 2 6 14 16 16 15 14 14 12 10 9 8 8 8 7 6 6 5 4 5 6 7 7 5 5 5 6
4 3 4 4 2 3 3 1 2 1 1 2 3 2 3 3 0 2 4 7 7 4 1 4 8 15 16 15 15 15 14 12 11 10 9 9 8 8 7 7 6 8 8 7 7 6 6 6 7
3 3 5 2 2 3 2 3 1 2 3 3 3 5 3 7 5 4 3 5 7 5 2 3 6 10 15 17 17 17 16 15 13 12 10 10 9 9 7 7 9 9 10 8 8 7 7 7 8
5 4 4 3 1 2 2 3 3 0 3 3 3 3 1 7 8 6 6 5 4 4 3 3 6 9 12 16 18 19 18 17 15 13 12 11 11 10 9 9 9 9 10 9 8 7 7 7 8
3 5 3 2 1 1 3 2 3 1 1 1 2 2 3 11 7 4 4 5 5 6 6 5 7 9 12 15 18 19 19 18 17 15 13 13 14 14 13 11 10 11 11 11 9 9 8 8 8
3 4 2 4 6 2 2 4 1 5 1 4 2 5 9 9 7 5 4 5 7 8 8 9 10 10 11 13 15 17 19 18 18 16 15 15 17 16 15 13 12 11 12 11 12 11 10 9 8
4 4 6 3 2 2 3 2 6 4 8 2 10 6 7 9 8 7 8 9 11 11 11 11 12 12 12 12 14 15 16 17 17 16 15 16 17 17 16 16 14 14 14 13 13 12 11 12 11
2 4 3 3 5 2 2 4 1 3 4 5 9 8 8 7 3 2 2 5 7 7 8 12 12 13 12 12 12 12 14 17 17 17 17 17 17 18 17 18 18 17 16 16 15 14 11 12 13
1 3 3 2 3 2 3 5 2 6 2 7 2 5 7 6 5 5 6 6 7 7 7 9 12 13 13 13 12 9 10 12 17 18 15 20 18 19 19 18 18 19 19 19 18 16 15 14 14
2 2 3 6 9 9 9 8 4 13 7 3 3 2 5 6 6 7 8 8 8 9 9 9 10 13 15 16 14 11 9 9 10 14 17 17 19 18 19 18 20 20 20 20 22 19 16 15 15
1 4 10 10 11 9 5 2 1 5 7 2 1 6 8 8 8 8 7 8 8 7 8 10 10 11 12 15 14 12 10 8 6 6 8 15 18 18 20 20 20 18 21 22 21 22 20 16 17
1 4 7 6 4 4 4 1 5 7 3 4 3 4 6 9 9 8 7 8 9 10 10 10 9 8 7 10 13 12 9 8 5 4 4 7 9 11 13 16 18 19 20 21 21 21 21 19 19
3 4 4 2 2 1 4 7 3 6 1 5 3 3 5 8 10 9 9 8 9 11 11 11 8 5 1 4 9 10 9 8 6 7 8 8 9 10 12 14 16 17 20 20 21 22 19 22 19
6 3 4 8 1 2 2 5 3 4 6 5 4 4 5 6 7 9 10 10 10 9 9 9 10 8 7 7 6 6 6 6 5 5 7 8 10 12 13 12 14 15 16 18 20 22 22 20 21
6 4 4 6 1 3 2 7 10 8 2 8 7 7 7 8 11 12 12 13 13 13 13 12 11 12 13 11 9 8 6 4 3 1 4 7 8 10 10 13 13 12 13 12 16 17 20 21 17
4 4 6 3 3 2 6 7 12 4 11 12 11 11 11 13 16 17 19 21 21 22 22 21 17 14 9 7 8 8 7 8 6 4 4 5 7 10 12 13 13 12 10 13 11 12 11 13 16
3 4 6 5 4 5 6 9 2 3 2 10 14 13 14 16 17 20 22 23 24 27 28 28 28 26 24 21 19 16 13 12 9 5 3 5 7 8 8 9 13 14 14 15 17 16 17 17 16
5 7 4 7 1 2 1 7 4 3 8 12 12 14 15 16 17 18 20 23 24 26 27 27 27 27 27 26 23 21 18 15 12 11 8 8 10 10 9 8 9 13 15 17 18 19 19 18 17
5 8 7 4 3 4 2 5 4 3 3 4 12 15 15 16 17 17 19 21 22 23 22 21 21 21 21 19 17 15 16 16 17 14 14 13 12 11 10 9 8 8 9 12 14 16 18 20 22
6 5 5 3 3 1 3 0 6 5 5 6 14 16 16 17 17 19 18 17 18 17 17 17 17 18 17 16 16 15 16 15 13 12 11 11 12 12 12 13 13 12 11 10 10 10 11 15 17
9 6 6 4 3 1 8 7 4 5 5 5 15 19 19 18 17 17 16 14 13 13 13 13 13 16 14 12 12 11 12 11 8 10 10 12 12 12 14 15 16 16 16 16 16 16 15 13 12
4 6 0 3 1 6 1 2 7 5 3 5 18 27 23 19 18 17 14 12 10 9 8 9 9 10 9 8 7 7 7 7 8 10 11 11 12 14 15 15 16 17 17 16 17 18 17 17 17
7 6 5 7 4 4 2 6 5 3 6 9 20 28 25 23 19 16 12 9 7 5 4 4 4 5 5 5 6 6 7 8 9 9 11 13 15 16 16 17 17 18 19 20 20 21 21 21 20
5 4 2 6 2 2 5 4 2 1 1 7 19 28 28 25 23 19 15 11 6 3 2 1 1 1 3 3 4 5 5 6 7 8 10 12 13 15 17 19 20 21 22 23 25 26 28 28 28
4 6 4 2 2 5 4 4 5 5 8 6 11 26 27 24 23 21 18 13 9 6 5 5 4 2 2 1 0 2 4 7 8 9 11 12 13 14 16 18 20 23 26 29 32 34 34 36 35
3 3 3 3 4 5 2 5 6 7 9 13 18 29 28 26 25 23 20 18 13 10 9 9 8 7 5 3 2 4 6 9 12 14 16 17 18 18 19 21 23 26 29 32 36 39 40 40 42
0 6 7 6 6 2 1 11 2 4 15 25 26 29 26 24 23 22 22 20 18 14 13 12 11 10 7 6 5 6 9 11 13 16 18 20 21 22 24 26 29 33 36 38 40 42 43 44 43
Wind_Direction
323 333 334 335 60 66 358 328 239 354 28 37 72 75 143 139 143 200 351 3 25 159 185 184 187 187 187 190 193 198 204 210 213 229 244 256 269 296 5 91 329 320 346 2 18 23 36 52 81
358 3 14 98 83 67 284 270 226 246 14 58 102 59 56 4 9 3 10 353 5 145 184 192 190 194 197 201 203 207 209 212 230 243 245 245 257 269 279 267 259 288 311 328 344 355 352 343 316
29 13 35 92 106 148 180 234 244 304 39 62 80 64 84 1 17 37 25 20 8 42 181 201 200 199 204 207 207 209 215 233 247 256 261 264 262 266 283 292 292 293 292 303 310 304 307 294 287
4 14 58 76 91 199 189 256 226 343 66 48 44 66 348 344 35 63 48 41 20 359 206 205 212 212 213 214 212 217 224 239 252 260 262 261 260 262 275 278 270 290 299 294 292 295 294 284 278
17 57 55 72 314 284 273 357 159 50 78 22 37 345 327 19 97 103 52 31 23 15 257 224 218 223 226 228 229 229 235 245 251 256 258 258 261 269 281 287 279 303 311 323 309 298 298 292 291
65 63 61 140 264 301 330 28 81 37 2 24 37 346 32 34 36 354 7 19 26 16 344 265 245 231 232 236 238 240 245 250 253 257 255 257 265 276 282 283 300 329 329 338 324 313 304 301 297
97 77 162 173 285 342 308 7 94 136 9 39 355 0 90 45 7 344 311 317 6 4 347 288 258 248 242 238 239 243 247 250 252 252 251 254 267 277 284 291 295 314 327 335 329 313 304 301 300
79 91 117 220 195 197 338 51 101 38 50 329 336 287 323 335 358 350 301 292 304 323 309 283 261 255 248 245 243 243 246 248 251 251 249 250 258 265 273 279 288 301 312 328 329 318 307 304 297
80 62 170 204 159 207 351 39 136 312 251 310 328 324 308 298 304 304 289 278 278 287 288 283 278 270 259 254 251 250 249 249 250 248 247 252 258 265 270 267 275 286 294 306 317 316 306 298 283
82 106 220 224 191 196 322 11 338 339 335 40 348 355 304 288 286 283 291 289 280 271 264 258 254 262 265 257 253 252 253 249 246 246 244 247 258 271 271 277 282 279 283 292 300 307 308 298 288
124 168 203 253 243 252 313 313 111 326 329 79 346 5 25 40 30 323 316 314 310 300 270 254 251 251 253 258 255 253 256 255 249 246 247 250 254 261 269 273 275 279 287 290 288 295 298 287 283
67 220 211 288 251 299 307 311 328 242 177 344 328 355 352 358 349 336 324 318 313 300 292 273 258 248 244 239 249 250 256 262 255 264 259 257 261 264 267 274 279 279 286 292 296 292 296 288 277
166 294 263 275 275 275 274 263 272 276 300 142 126 354 1 6 3 343 342 334 319 311 309 302 276 255 241 232 229 242 253 266 272 263 264 261 262 267 266 278 281 282 283 287 295 300 299 291 285
276 309 301 294 278 275 226 241 292 77 114 115 11 355 358 359 354 346 324 325 324 320 310 318 319 298 260 233 227 233 249 263 277 286 264 257 261 263 270 270 271 288 286 286 293 296 295 293 290
15 333 325 283 287 218 184 278 212 149 126 130 62 26 3 3 359 1 357 349 353 351 342 329 320 312 292 237 218 217 232 251 260 283 282 278 270 271 271 269 276 284 284 285 290 294 294 295 297
35 55 357 285 163 284 149 261 69 130 274 99 94 58 34 17 13 18 22 17 12 8 5 7 358 348 350 193 198 205 212 222 231 249 255 258 262 262 265 274 281 281 283 285 285 287 293 288 294
8 240 210 312 46 119 125 260 170 82 339 119 103 90 72 59 41 37 40 44 46 48 51 55 55 58 76 106 134 161 181 192 221 257 265 271 269 262 268 280 277 278 277 280 282 281 273 275 281
196 211 233 232 357 68 151 267 286 21 124 132 119 101 89 77 64 62 63 64 65 65 66 73 78 77 78 81 92 108 129 140 147 7 306 292 293 288 282 276 280 285 294 291 281 283 272 269 281
150 177 210 249 222 135 237 237 263 63 120 140 141 132 113 97 87 85 83 83 84 85 85 83 84 84 85 89 86 86 84 86 99 93 9 328 311 309 313 311 294 294 307 304 316 302 306 308 305
147 177 238 284 229 166 262 255 205 25 123 178 153 140 128 119 115 106 100 96 91 84 81 81 79 79 78 76 74 73 74 79 74 77 5 338 315 305 288 293 308 314 312 307 303 310 307 306 304
201 208 187 214 10 258 19 285 171 36 104 132 144 145 140 131 120 111 106 98 91 88 83 74 70 69 65 64 65 68 67 70 70 66 52 35 19 8 353 331 302 294 298 302 308 309 312 311 305
221 197 191 179 119 231 126 272 303 155 125 146 158 160 152 143 132 122 113 106 96 86 78 70 64 59 63 65 60 51 51 49 59 57 53 45 41 36 29 15 359 340 324 309 302 300 303 308 308
224 119 158 142 156 87 240 300 256 129 224 197 193 177 167 158 146 131 120 107 96 90 82 71 58 56 57 56 53 50 53 57 63 59 49 43 34 31 32 31 30 27 23 9 345 328 316 305 296
146 83 54 53 84 267 226 187 251 193 210 168 188 188 177 168 154 143 130 116 107 93 82 71 55 42 41 36 38 41 45 46 39 34 26 25 23 22 20 16 13 13 10 8 5 3 356 349 323
101 105 326 348 333 233 330 164 249 185 182 192 185 185 182 174 168 160 146 131 115 102 87 69 54 47 52 45 46 48 41 28 20 16 16 13 13 14 14 10 6 3 3 360 355 351 349 346 342
181 165 161 211 205 245 62 237 258 351 320 269 199 185 181 180 179 173 160 147 131 119 97 64 59 58 59 57 56 50 38 30 23 17 11 6 5 6 5 2 359 354 349 345 342 338 335 333 329
190 195 145 100 19 45 209 260 225 49 37 139 169 181 188 188 187 185 184 184 175 174 186 149 60 78 88 76 62 43 26 16 11 6 359 352 348 344 343 341 341 340 339 337 332 329 326 322 319
156 162 78 3 256 259 250 256 224 228 214 167 177 190 197 197 197 197 202 207 215 213 220 234 224 223 203 197 203 354 359 359 355 350 342 341 339 335 332 331 330 331 331 329 327 325 322 318 315
139 175 80 144 153 201 283 253 209 207 169 186 200 200 200 203 206 209 212 216 220 231 235 233 222 217 217 222 281 330 336 338 339 338 339 338 336 333 331 331 331 330 328 325 323 320 318 314 312
31 197 163 196 225 238 137 261 349 239 186 183 197 203 206 211 212 216 221 225 231 238 239 234 226 223 225 239 271 304 320 326 329 329 330 328 326 326 326 326 327 327 326 324 322 319 317 315 314